Time,TemperatureF,DewpointF,PressureIn,WindDirection,WindDirectionDegrees,WindSpeedMPH,WindSpeedGustMPH,Humidity,HourlyPrecipIn,Conditions,Clouds,dailyrainin,SoftwareType,DateUTC
2013-06-26 00:03:00,54.7,52.4,28.05,WNW,292,0.0,0.0,92,0.00,,---,0.00,VWS V14.01,2013-06-26 07:03:00,
2013-06-26 00:08:00,54.5,52.5,28.05,WNW,292,0.0,0.0,93,0.00,,---,0.00,VWS V14.01,2013-06-26 07:08:00,
2013-06-26 00:13:00,54.5,52.5,28.05,SW,225,0.0,1.1,93,0.00,,---,0.00,VWS V14.01,2013-06-26 07:13:00,
2013-06-26 00:18:00,54.5,52.2,28.05,WSW,248,0.0,0.0,92,0.00,,---,0.00,VWS V14.01,2013-06-26 07:18:00,
2013-06-26 00:23:00,54.3,52.3,28.05,WSW,248,0.0,0.0,93,0.00,,---,0.00,VWS V14.01,2013-06-26 07:23:00,
2013-06-26 00:28:00,54.1,52.2,28.05,WSW,248,0.0,0.0,93,0.00,,---,0.00,VWS V14.01,2013-06-26 07:28:00,
2013-06-26 00:33:00,54.1,51.9,28.05,WSW,248,0.0,0.0,92,0.00,,---,0.00,VWS V14.01,2013-06-26 07:33:00,
2013-06-26 00:38:00,54.0,51.7,28.05,WSW,248,0.0,0.0,92,0.00,,---,0.00,VWS V14.01,2013-06-26 07:38:00,
2013-06-26 00:43:00,54.0,51.7,28.05,WSW,248,0.0,0.0,92,0.00,,---,0.00,VWS V14.01,2013-06-26 07:43:00,
2013-06-26 00:48:00,53.8,51.5,28.05,WNW,292,0.0,0.0,92,0.00,,---,0.00,VWS V14.01,2013-06-26 07:48:00,
2013-06-26 00:53:00,53.6,51.3,28.05,West,270,0.0,0.0,92,0.00,,---,0.00,VWS V14.01,2013-06-26 07:53:00,
2013-06-26 00:58:00,53.6,51.3,28.05,SSE,158,0.0,0.0,92,0.00,,---,0.00,VWS V14.01,2013-06-26 07:58:00,
2013-06-26 01:03:00,53.4,51.5,28.05,WNW,292,0.0,0.0,93,0.00,,---,0.00,VWS V14.01,2013-06-26 08:03:00,
2013-06-26 01:08:00,53.1,50.8,28.05,West,270,0.0,0.0,92,0.00,,---,0.00,VWS V14.01,2013-06-26 08:08:00,
2013-06-26 01:13:00,52.9,50.6,28.05,West,270,0.0,0.0,92,0.00,,---,0.00,VWS V14.01,2013-06-26 08:13:00,
2013-06-26 01:18:00,52.7,50.5,28.05,West,270,0.0,0.9,92,0.00,,---,0.00,VWS V14.01,2013-06-26 08:18:00,
2013-06-26 01:24:00,52.7,50.5,28.05,NNE,22,0.0,0.0,92,0.00,,---,0.00,VWS V14.01,2013-06-26 08:24:00,
2013-06-26 01:29:00,52.3,50.1,28.08,NNW,338,0.0,0.0,92,0.00,,---,0.00,VWS V14.01,2013-06-26 08:29:00,
2013-06-26 01:34:00,52.2,49.9,28.08,WSW,248,0.0,0.0,92,0.00,,---,0.00,VWS V14.01,2013-06-26 08:34:00,
2013-06-26 01:39:00,52.0,49.7,28.08,WSW,248,0.0,0.0,92,0.00,,---,0.00,VWS V14.01,2013-06-26 08:39:00,
2013-06-26 01:44:00,51.8,49.5,28.05,SW,225,0.0,0.0,92,0.00,,---,0.00,VWS V14.01,2013-06-26 08:44:00,
2013-06-26 01:49:00,51.6,49.4,28.05,WSW,248,0.0,0.0,92,0.00,,---,0.00,VWS V14.01,2013-06-26 08:49:00,
2013-06-26 01:54:00,51.8,49.8,28.05,NE,45,2.5,2.5,93,0.00,,---,0.00,VWS V14.01,2013-06-26 08:54:00,
2013-06-26 01:59:00,51.8,49.8,28.05,WSW,248,0.0,0.0,93,0.00,,---,0.00,VWS V14.01,2013-06-26 08:59:00,
2013-06-26 02:04:00,51.8,49.5,28.05,SSW,202,0.0,0.0,92,0.00,,---,0.00,VWS V14.01,2013-06-26 09:04:00,
2013-06-26 02:09:00,51.4,49.2,28.05,South,180,0.0,0.0,92,0.00,,---,0.00,VWS V14.01,2013-06-26 09:09:00,
2013-06-26 02:14:00,51.1,48.8,28.05,SW,225,0.0,0.0,92,0.00,,---,0.00,VWS V14.01,2013-06-26 09:14:00,
2013-06-26 02:19:00,50.9,48.7,28.05,West,270,0.0,0.0,92,0.00,,---,0.00,VWS V14.01,2013-06-26 09:19:00,
2013-06-26 02:24:00,50.5,48.3,28.05,West,270,0.0,0.0,92,0.00,,---,0.00,VWS V14.01,2013-06-26 09:24:00,
2013-06-26 02:29:00,50.4,48.1,28.08,WSW,248,0.0,0.0,92,0.00,,---,0.00,VWS V14.01,2013-06-26 09:29:00,
2013-06-26 02:34:00,50.2,48.0,28.08,WSW,248,0.0,0.0,92,0.00,,---,0.00,VWS V14.01,2013-06-26 09:34:00,
2013-06-26 02:39:00,50.0,47.8,28.08,West,270,0.0,0.0,92,0.00,,---,0.00,VWS V14.01,2013-06-26 09:39:00,
2013-06-26 02:44:00,50.0,47.8,28.08,SSW,202,0.0,0.0,92,0.00,,---,0.00,VWS V14.01,2013-06-26 09:44:00,
2013-06-26 02:49:00,49.8,47.9,28.08,WSW,248,0.0,0.0,93,0.00,,---,0.00,VWS V14.01,2013-06-26 09:49:00,
2013-06-26 02:54:00,49.8,47.9,28.08,WSW,248,0.0,0.0,93,0.00,,---,0.00,VWS V14.01,2013-06-26 09:54:00,
2013-06-26 02:59:00,49.8,48.2,28.08,West,270,1.3,1.3,94,0.00,,---,0.00,VWS V14.01,2013-06-26 09:59:00,
2013-06-26 03:04:00,49.8,48.2,28.08,West,270,0.0,0.0,94,0.00,,---,0.00,VWS V14.01,2013-06-26 10:04:00,
2013-06-26 03:09:00,49.6,48.0,28.08,West,270,0.0,0.0,94,0.00,,---,0.00,VWS V14.01,2013-06-26 10:09:00,
2013-06-26 03:14:00,49.5,47.8,28.08,SSW,202,0.0,0.0,94,0.00,,---,0.00,VWS V14.01,2013-06-26 10:14:00,
2013-06-26 03:19:00,49.5,47.8,28.08,SW,225,0.0,0.0,94,0.00,,---,0.00,VWS V14.01,2013-06-26 10:19:00,
2013-06-26 03:24:00,49.3,47.6,28.08,SW,225,0.0,0.0,94,0.00,,---,0.00,VWS V14.01,2013-06-26 10:24:00,
2013-06-26 03:29:00,49.1,47.5,28.08,NNW,338,0.0,0.0,94,0.00,,---,0.00,VWS V14.01,2013-06-26 10:29:00,
2013-06-26 03:34:00,48.9,47.3,28.08,WNW,292,0.0,0.0,94,0.00,,---,0.00,VWS V14.01,2013-06-26 10:34:00,
2013-06-26 03:39:00,48.7,47.1,28.08,WNW,292,0.0,0.0,94,0.00,,---,0.00,VWS V14.01,2013-06-26 10:39:00,
2013-06-26 03:44:00,48.7,47.1,28.08,West,270,0.0,0.0,94,0.00,,---,0.00,VWS V14.01,2013-06-26 10:44:00,
2013-06-26 03:49:00,48.7,47.4,28.08,SSW,202,0.0,0.0,95,0.00,,---,0.00,VWS V14.01,2013-06-26 10:49:00,
2013-06-26 03:54:00,48.7,47.4,28.08,West,270,0.0,0.0,95,0.00,,---,0.00,VWS V14.01,2013-06-26 10:54:00,
2013-06-26 03:59:00,48.7,47.4,28.08,North,0,0.0,0.0,95,0.00,,---,0.00,VWS V14.01,2013-06-26 10:59:00,
2013-06-26 04:04:00,48.7,47.4,28.08,West,270,0.0,0.0,95,0.00,,---,0.00,VWS V14.01,2013-06-26 11:04:00,
2013-06-26 04:09:00,48.6,47.2,28.08,West,270,0.0,0.0,95,0.00,,---,0.00,VWS V14.01,2013-06-26 11:09:00,
2013-06-26 04:10:00,48.6,47.2,28.08,West,270,0.0,0.0,95,0.00,,---,0.00,VWS V14.01,2013-06-26 11:10:00,
2013-06-26 04:15:00,48.6,47.2,28.08,West,270,0.0,0.0,95,0.00,,---,0.00,VWS V14.01,2013-06-26 11:15:00,
2013-06-26 04:20:00,48.4,47.0,28.08,West,270,0.0,0.0,95,0.00,,---,0.00,VWS V14.01,2013-06-26 11:20:00,
2013-06-26 04:25:00,48.4,47.0,28.08,West,270,0.0,0.0,95,0.00,,---,0.00,VWS V14.01,2013-06-26 11:25:00,
2013-06-26 04:30:00,48.4,47.0,28.08,West,270,0.0,0.0,95,0.00,,---,0.00,VWS V14.01,2013-06-26 11:30:00,
2013-06-26 04:35:00,48.2,46.8,28.08,West,270,0.0,0.0,95,0.00,,---,0.00,VWS V14.01,2013-06-26 11:35:00,
2013-06-26 04:40:00,48.0,46.7,28.08,West,270,0.0,0.0,95,0.00,,---,0.00,VWS V14.01,2013-06-26 11:40:00,
2013-06-26 04:45:00,48.0,46.7,28.08,NE,45,0.0,0.0,95,0.00,,---,0.00,VWS V14.01,2013-06-26 11:45:00,
2013-06-26 04:50:00,48.0,46.9,28.08,ESE,112,0.0,0.0,96,0.00,,---,0.00,VWS V14.01,2013-06-26 11:50:00,
2013-06-26 04:55:00,48.0,46.9,28.08,ESE,112,0.0,0.0,96,0.00,,---,0.00,VWS V14.01,2013-06-26 11:55:00,
2013-06-26 05:00:00,48.0,46.9,28.11,SSE,158,0.0,0.0,96,0.00,,---,0.00,VWS V14.01,2013-06-26 12:00:00,
2013-06-26 05:05:00,48.0,46.9,28.11,SSE,158,0.0,0.0,96,0.00,,---,0.00,VWS V14.01,2013-06-26 12:05:00,
2013-06-26 05:10:00,47.8,46.8,28.11,SSE,158,0.0,0.0,96,0.00,,---,0.00,VWS V14.01,2013-06-26 12:10:00,
2013-06-26 05:15:00,47.8,46.8,28.11,SSE,158,0.0,0.0,96,0.00,,---,0.00,VWS V14.01,2013-06-26 12:15:00,
2013-06-26 05:20:00,47.8,46.8,28.11,SSE,158,0.0,0.0,96,0.00,,---,0.00,VWS V14.01,2013-06-26 12:20:00,
2013-06-26 05:25:00,48.0,46.9,28.11,East,90,0.0,0.0,96,0.00,,---,0.00,VWS V14.01,2013-06-26 12:25:00,
2013-06-26 05:30:00,48.2,47.1,28.11,East,90,0.0,0.0,96,0.00,,---,0.00,VWS V14.01,2013-06-26 12:30:00,
2013-06-26 05:35:00,48.2,47.1,28.11,East,90,0.0,0.0,96,0.00,,---,0.00,VWS V14.01,2013-06-26 12:35:00,
2013-06-26 05:40:00,48.2,47.1,28.11,East,90,0.0,0.0,96,0.00,,---,0.00,VWS V14.01,2013-06-26 12:40:00,
2013-06-26 05:45:00,48.4,47.3,28.11,East,90,0.0,0.0,96,0.00,,---,0.00,VWS V14.01,2013-06-26 12:45:00,
2013-06-26 05:50:00,48.4,47.3,28.11,East,90,0.0,0.0,96,0.00,,---,0.00,VWS V14.01,2013-06-26 12:50:00,
2013-06-26 05:55:00,48.6,47.5,28.11,East,90,0.0,0.0,96,0.00,,---,0.00,VWS V14.01,2013-06-26 12:55:00,
2013-06-26 06:00:00,48.6,47.5,28.11,East,90,0.0,0.0,96,0.00,,---,0.00,VWS V14.01,2013-06-26 13:00:00,
2013-06-26 06:05:00,48.7,47.7,28.11,ENE,68,0.0,0.0,96,0.00,,---,0.00,VWS V14.01,2013-06-26 13:05:00,
2013-06-26 06:10:00,48.7,47.7,28.11,SE,135,0.0,0.0,96,0.00,,---,0.00,VWS V14.01,2013-06-26 13:10:00,
2013-06-26 06:15:00,48.9,47.8,28.11,SE,135,0.0,0.0,96,0.00,,---,0.00,VWS V14.01,2013-06-26 13:15:00,
2013-06-26 06:20:00,49.1,48.0,28.11,SE,135,0.0,0.0,96,0.00,,---,0.00,VWS V14.01,2013-06-26 13:20:00,
2013-06-26 06:25:00,49.3,48.2,28.11,NNE,22,0.0,0.0,96,0.00,,---,0.00,VWS V14.01,2013-06-26 13:25:00,
2013-06-26 06:30:00,49.5,48.4,28.11,NE,45,0.0,0.0,96,0.00,,---,0.00,VWS V14.01,2013-06-26 13:30:00,
2013-06-26 06:35:00,49.6,48.5,28.11,NE,45,0.0,0.0,96,0.00,,---,0.00,VWS V14.01,2013-06-26 13:35:00,
2013-06-26 06:40:00,50.0,48.9,28.11,NE,45,0.0,0.0,96,0.00,,---,0.00,VWS V14.01,2013-06-26 13:40:00,
2013-06-26 06:45:00,50.2,49.1,28.11,NE,45,0.0,0.0,96,0.00,,---,0.00,VWS V14.01,2013-06-26 13:45:00,
2013-06-26 06:50:00,50.9,49.8,28.11,NE,45,0.0,0.0,96,0.00,,---,0.00,VWS V14.01,2013-06-26 13:50:00,
2013-06-26 06:55:00,51.6,50.8,28.11,WSW,248,0.0,0.0,97,0.00,,---,0.00,VWS V14.01,2013-06-26 13:55:00,
2013-06-26 07:00:00,52.5,51.4,28.11,SE,135,0.0,0.0,96,0.00,,---,0.00,VWS V14.01,2013-06-26 14:00:00,
2013-06-26 07:05:00,53.2,52.1,28.11,SE,135,0.0,0.0,96,0.00,,---,0.00,VWS V14.01,2013-06-26 14:05:00,
2013-06-26 07:10:00,54.1,53.0,28.11,ESE,112,0.0,0.0,96,0.00,,---,0.00,VWS V14.01,2013-06-26 14:10:00,
2013-06-26 07:15:00,54.7,53.3,28.14,ENE,68,0.0,0.0,95,0.00,,---,0.00,VWS V14.01,2013-06-26 14:15:00,
2013-06-26 07:20:00,54.9,53.2,28.14,ENE,68,0.0,0.0,94,0.00,,---,0.00,VWS V14.01,2013-06-26 14:20:00,
2013-06-26 07:25:00,54.9,52.6,28.14,ENE,68,0.0,0.0,92,0.00,,---,0.00,VWS V14.01,2013-06-26 14:25:00,
2013-06-26 07:31:00,55.2,52.3,28.14,ENE,68,0.0,0.0,90,0.00,,---,0.00,VWS V14.01,2013-06-26 14:31:00,
2013-06-26 07:36:00,55.6,52.4,28.14,ENE,68,0.0,0.0,89,0.00,,---,0.00,VWS V14.01,2013-06-26 14:36:00,
2013-06-26 07:41:00,55.9,52.1,28.14,NE,45,0.0,0.0,87,0.00,,---,0.00,VWS V14.01,2013-06-26 14:41:00,
2013-06-26 07:46:00,55.9,51.8,28.14,NE,45,0.0,0.0,86,0.00,,---,0.00,VWS V14.01,2013-06-26 14:46:00,
2013-06-26 07:51:00,56.1,51.0,28.14,NE,45,0.0,0.0,83,0.00,,---,0.00,VWS V14.01,2013-06-26 14:51:00,
2013-06-26 07:56:00,56.3,51.2,28.14,NE,45,0.0,0.0,83,0.00,,---,0.00,VWS V14.01,2013-06-26 14:56:00,
2013-06-26 08:01:00,56.8,51.1,28.14,ENE,68,0.9,2.7,81,0.00,,---,0.00,VWS V14.01,2013-06-26 15:01:00,
2013-06-26 08:06:00,57.6,51.8,28.14,NNE,22,0.0,0.0,81,0.00,,---,0.00,VWS V14.01,2013-06-26 15:06:00,
2013-06-26 08:11:00,57.7,52.0,28.14,South,180,0.0,0.0,81,0.00,,---,0.00,VWS V14.01,2013-06-26 15:11:00,
2013-06-26 08:16:00,57.9,51.5,28.14,NE,45,0.0,0.0,79,0.00,,---,0.00,VWS V14.01,2013-06-26 15:16:00,
2013-06-26 08:21:00,57.9,49.7,28.14,NE,45,0.9,2.9,74,0.00,,---,0.00,VWS V14.01,2013-06-26 15:21:00,
2013-06-26 08:26:00,58.3,50.8,28.14,ENE,68,0.0,0.0,76,0.00,,---,0.00,VWS V14.01,2013-06-26 15:26:00,
2013-06-26 08:31:00,59.0,51.5,28.14,East,90,0.0,0.0,76,0.00,,---,0.00,VWS V14.01,2013-06-26 15:31:00,
2013-06-26 08:36:00,59.5,51.6,28.14,NE,45,0.0,1.1,75,0.00,,---,0.00,VWS V14.01,2013-06-26 15:36:00,
2013-06-26 08:41:00,59.7,51.1,28.14,ENE,68,0.0,0.0,73,0.00,,---,0.00,VWS V14.01,2013-06-26 15:41:00,
2013-06-26 08:46:00,60.6,51.9,28.11,SW,225,0.0,0.0,73,0.00,,---,0.00,VWS V14.01,2013-06-26 15:46:00,
2013-06-26 08:51:00,61.0,52.3,28.11,SW,225,0.0,0.0,73,0.00,,---,0.00,VWS V14.01,2013-06-26 15:51:00,
2013-06-26 08:56:00,61.0,51.9,28.11,SSW,202,0.0,0.0,72,0.00,,---,0.00,VWS V14.01,2013-06-26 15:56:00,
2013-06-26 09:01:00,60.8,51.7,28.14,SSW,202,0.0,0.0,72,0.00,,---,0.00,VWS V14.01,2013-06-26 16:01:00,
2013-06-26 09:06:00,61.0,51.5,28.14,WSW,248,0.0,0.0,71,0.00,,---,0.00,VWS V14.01,2013-06-26 16:06:00,
2013-06-26 09:11:00,61.2,51.7,28.14,SW,225,0.0,0.0,71,0.00,,---,0.00,VWS V14.01,2013-06-26 16:11:00,
2013-06-26 09:16:00,61.5,51.7,28.14,SW,225,0.0,0.0,70,0.00,,---,0.00,VWS V14.01,2013-06-26 16:16:00,
2013-06-26 09:21:00,61.5,51.7,28.14,ESE,112,0.0,0.0,70,0.00,,---,0.00,VWS V14.01,2013-06-26 16:21:00,
2013-06-26 09:26:00,61.7,51.4,28.14,ENE,68,0.0,0.0,69,0.00,,---,0.00,VWS V14.01,2013-06-26 16:26:00,
2013-06-26 09:31:00,62.1,51.0,28.14,NNW,338,0.0,0.0,67,0.00,,---,0.00,VWS V14.01,2013-06-26 16:31:00,
2013-06-26 09:36:00,62.2,51.2,28.14,NNW,338,0.0,0.0,67,0.00,,---,0.00,VWS V14.01,2013-06-26 16:36:00,
2013-06-26 09:41:00,62.2,50.8,28.14,North,0,0.0,0.0,66,0.00,,---,0.00,VWS V14.01,2013-06-26 16:41:00,
2013-06-26 09:46:00,62.4,50.5,28.14,NNW,338,0.0,0.0,65,0.00,,---,0.00,VWS V14.01,2013-06-26 16:46:00,
2013-06-26 09:51:00,62.6,51.5,28.14,ESE,112,0.0,0.0,67,0.00,,---,0.00,VWS V14.01,2013-06-26 16:51:00,
2013-06-26 09:56:00,62.4,50.9,28.14,NE,45,0.0,0.0,66,0.00,,---,0.00,VWS V14.01,2013-06-26 16:56:00,
2013-06-26 10:01:00,62.8,50.8,28.14,ENE,68,0.0,0.0,65,0.00,,---,0.00,VWS V14.01,2013-06-26 17:01:00,
2013-06-26 10:06:00,63.1,51.2,28.14,ENE,68,0.0,0.9,65,0.00,,---,0.00,VWS V14.01,2013-06-26 17:06:00,
2013-06-26 10:11:00,63.1,49.9,28.14,NNE,22,0.0,0.0,62,0.00,,---,0.00,VWS V14.01,2013-06-26 17:11:00,
2013-06-26 10:16:00,63.0,49.3,28.14,NNE,22,0.0,0.0,61,0.00,,---,0.00,VWS V14.01,2013-06-26 17:16:00,
2013-06-26 10:21:00,63.5,50.7,28.14,ENE,68,0.0,0.0,63,0.00,,---,0.00,VWS V14.01,2013-06-26 17:21:00,
2013-06-26 10:26:00,64.2,50.9,28.14,NNE,22,0.0,0.0,62,0.00,,---,0.00,VWS V14.01,2013-06-26 17:26:00,
2013-06-26 10:31:00,64.6,49.5,28.14,NE,45,1.1,2.0,58,0.00,,---,0.00,VWS V14.01,2013-06-26 17:31:00,
2013-06-26 10:36:00,64.9,49.4,28.14,NE,45,1.1,1.6,57,0.00,,---,0.00,VWS V14.01,2013-06-26 17:36:00,
2013-06-26 10:41:00,65.1,50.5,28.14,NE,45,0.0,0.0,59,0.00,,---,0.00,VWS V14.01,2013-06-26 17:41:00,
2013-06-26 10:46:00,65.3,49.2,28.14,ENE,68,0.0,0.0,56,0.00,,---,0.00,VWS V14.01,2013-06-26 17:46:00,
2013-06-26 10:51:00,65.8,50.7,28.14,ESE,112,0.0,0.0,58,0.00,,---,0.00,VWS V14.01,2013-06-26 17:51:00,
2013-06-26 10:56:00,66.9,49.8,28.14,ENE,68,0.0,0.9,54,0.00,,---,0.00,VWS V14.01,2013-06-26 17:56:00,
2013-06-26 11:02:00,68.4,50.6,28.14,WSW,248,0.0,0.0,53,0.00,,---,0.00,VWS V14.01,2013-06-26 18:02:00,
2013-06-26 11:07:00,68.9,50.6,28.14,WSW,248,0.0,0.0,52,0.00,,---,0.00,VWS V14.01,2013-06-26 18:07:00,
2013-06-26 11:12:00,70.3,50.8,28.14,West,270,0.0,0.0,50,0.00,,---,0.00,VWS V14.01,2013-06-26 18:12:00,
2013-06-26 11:17:00,69.8,46.9,28.14,NE,45,3.1,3.1,44,0.00,,---,0.00,VWS V14.01,2013-06-26 18:17:00,
2013-06-26 11:22:00,69.3,48.2,28.14,ENE,68,0.0,1.6,47,0.00,,---,0.00,VWS V14.01,2013-06-26 18:22:00,
2013-06-26 11:27:00,69.1,47.5,28.14,ENE,68,1.6,1.6,46,0.00,,---,0.00,VWS V14.01,2013-06-26 18:27:00,
2013-06-26 11:32:00,68.9,47.9,28.14,ENE,68,0.0,1.3,47,0.00,,---,0.00,VWS V14.01,2013-06-26 18:32:00,
2013-06-26 11:37:00,69.3,48.2,28.14,NNE,22,1.1,2.0,47,0.00,,---,0.00,VWS V14.01,2013-06-26 18:37:00,
2013-06-26 11:42:00,69.3,48.2,28.14,West,270,0.0,0.0,47,0.00,,---,0.00,VWS V14.01,2013-06-26 18:42:00,
2013-06-26 11:47:00,69.6,48.0,28.14,NE,45,1.3,1.3,46,0.00,,---,0.00,VWS V14.01,2013-06-26 18:47:00,
2013-06-26 11:52:00,70.2,49.0,28.14,NNE,22,0.0,0.0,47,0.00,,---,0.00,VWS V14.01,2013-06-26 18:52:00,
2013-06-26 11:57:00,70.5,47.6,28.14,NE,45,0.0,0.0,44,0.00,,---,0.00,VWS V14.01,2013-06-26 18:57:00,
2013-06-26 12:02:00,71.6,49.2,28.14,NNW,338,0.0,0.0,45,0.00,,---,0.00,VWS V14.01,2013-06-26 19:02:00,
2013-06-26 12:07:00,71.1,48.1,28.14,NE,45,0.0,0.0,44,0.00,,---,0.00,VWS V14.01,2013-06-26 19:07:00,
2013-06-26 12:12:00,71.1,47.5,28.14,West,270,0.0,0.0,43,0.00,,---,0.00,VWS V14.01,2013-06-26 19:12:00,
2013-06-26 12:17:00,71.2,47.6,28.14,WNW,292,0.0,0.0,43,0.00,,---,0.00,VWS V14.01,2013-06-26 19:17:00,
2013-06-26 12:22:00,70.7,47.7,28.14,SE,135,1.1,1.1,44,0.00,,---,0.00,VWS V14.01,2013-06-26 19:22:00,
2013-06-26 12:27:00,70.9,47.3,28.14,East,90,0.0,0.0,43,0.00,,---,0.00,VWS V14.01,2013-06-26 19:27:00,
2013-06-26 12:32:00,71.1,47.5,28.14,ENE,68,2.7,2.7,43,0.00,,---,0.00,VWS V14.01,2013-06-26 19:32:00,
2013-06-26 12:37:00,72.3,48.0,28.14,East,90,2.5,2.5,42,0.00,,---,0.00,VWS V14.01,2013-06-26 19:37:00,
2013-06-26 12:42:00,72.3,48.0,28.14,NE,45,1.6,1.6,42,0.00,,---,0.00,VWS V14.01,2013-06-26 19:42:00,
2013-06-26 12:47:00,71.2,46.4,28.14,East,90,2.7,2.7,41,0.00,,---,0.00,VWS V14.01,2013-06-26 19:47:00,
2013-06-26 12:52:00,70.3,46.2,28.14,NNE,22,1.6,1.6,42,0.00,,---,0.00,VWS V14.01,2013-06-26 19:52:00,
2013-06-26 12:57:00,70.0,47.1,28.14,WNW,292,0.0,0.0,44,0.00,,---,0.00,VWS V14.01,2013-06-26 19:57:00,
2013-06-26 13:02:00,69.8,45.7,28.14,NNW,338,2.0,2.7,42,0.00,,---,0.00,VWS V14.01,2013-06-26 20:02:00,
2013-06-26 13:07:00,69.6,47.4,28.14,NE,45,1.3,1.3,45,0.00,,---,0.00,VWS V14.01,2013-06-26 20:07:00,
2013-06-26 13:12:00,69.8,46.9,28.14,East,90,1.6,1.6,44,0.00,,---,0.00,VWS V14.01,2013-06-26 20:12:00,
2013-06-26 13:17:00,70.5,48.8,28.14,ESE,112,0.0,0.0,46,0.00,,---,0.00,VWS V14.01,2013-06-26 20:17:00,
2013-06-26 13:22:00,70.5,47.6,28.14,ENE,68,2.0,2.9,44,0.00,,---,0.00,VWS V14.01,2013-06-26 20:22:00,
2013-06-26 13:27:00,70.3,47.4,28.14,SSE,158,0.0,0.0,44,0.00,,---,0.00,VWS V14.01,2013-06-26 20:27:00,
2013-06-26 13:32:00,71.2,49.4,28.14,ENE,68,1.3,1.3,46,0.00,,---,0.00,VWS V14.01,2013-06-26 20:32:00,
2013-06-26 13:37:00,72.0,48.3,28.14,NE,45,2.9,2.9,43,0.00,,---,0.00,VWS V14.01,2013-06-26 20:37:00,
2013-06-26 13:42:00,71.4,47.8,28.14,ENE,68,2.5,2.9,43,0.00,,---,0.00,VWS V14.01,2013-06-26 20:42:00,
2013-06-26 13:47:00,71.2,47.6,28.17,NE,45,3.4,3.4,43,0.00,,---,0.00,VWS V14.01,2013-06-26 20:47:00,
2013-06-26 13:52:00,70.7,47.7,28.17,ENE,68,0.0,0.0,44,0.00,,---,0.00,VWS V14.01,2013-06-26 20:52:00,
2013-06-26 13:57:00,70.5,48.2,28.17,ENE,68,0.0,0.0,45,0.00,,---,0.00,VWS V14.01,2013-06-26 20:57:00,
2013-06-26 14:02:00,70.5,47.6,28.14,WNW,292,0.0,2.9,44,0.00,,---,0.00,VWS V14.01,2013-06-26 21:02:00,
2013-06-26 14:07:00,70.3,47.4,28.14,ENE,68,0.0,0.0,44,0.00,,---,0.00,VWS V14.01,2013-06-26 21:07:00,
2013-06-26 14:13:00,70.0,47.1,28.14,NE,45,1.3,2.0,44,0.00,,---,0.00,VWS V14.01,2013-06-26 21:13:00,
2013-06-26 14:18:00,69.4,48.3,28.17,NNE,22,0.0,0.0,47,0.00,,---,0.00,VWS V14.01,2013-06-26 21:18:00,
2013-06-26 14:23:00,68.9,49.0,28.17,NNE,22,0.0,0.0,49,0.00,,---,0.00,VWS V14.01,2013-06-26 21:23:00,
2013-06-26 14:28:00,68.5,49.7,28.17,West,270,0.0,0.0,51,0.00,,---,0.00,VWS V14.01,2013-06-26 21:28:00,
2013-06-26 14:33:00,69.1,51.2,28.17,West,270,0.0,0.0,53,0.00,,---,0.00,VWS V14.01,2013-06-26 21:33:00,
2013-06-26 14:38:00,69.3,55.7,28.17,WSW,248,0.0,0.0,62,0.00,,---,0.00,VWS V14.01,2013-06-26 21:38:00,
2013-06-26 14:43:00,68.5,55.9,28.17,NNE,22,0.9,1.1,64,0.00,,---,0.00,VWS V14.01,2013-06-26 21:43:00,
2013-06-26 14:48:00,68.2,55.1,28.17,North,0,0.0,0.0,63,0.00,,---,0.00,VWS V14.01,2013-06-26 21:48:00,
2013-06-26 14:53:00,69.4,55.9,28.17,NNE,22,0.0,0.0,62,0.00,,---,0.00,VWS V14.01,2013-06-26 21:53:00,
2013-06-26 14:58:00,70.0,55.9,28.17,NW,315,0.0,0.0,61,0.00,,---,0.00,VWS V14.01,2013-06-26 21:58:00,
2013-06-26 15:03:00,69.4,55.4,28.17,WNW,292,0.0,0.0,61,0.00,,---,0.00,VWS V14.01,2013-06-26 22:03:00,
2013-06-26 15:08:00,69.6,56.5,28.17,WNW,292,0.0,0.0,63,0.00,,---,0.00,VWS V14.01,2013-06-26 22:08:00,
2013-06-26 15:13:00,69.8,57.1,28.17,West,270,0.0,0.0,64,0.00,,---,0.00,VWS V14.01,2013-06-26 22:13:00,
2013-06-26 15:18:00,69.1,55.1,28.17,WSW,248,0.0,0.0,61,0.00,,---,0.00,VWS V14.01,2013-06-26 22:18:00,
2013-06-26 15:23:00,68.9,55.4,28.17,WSW,248,0.0,0.0,62,0.00,,---,0.00,VWS V14.01,2013-06-26 22:23:00,
2013-06-26 15:28:00,70.2,57.0,28.17,WSW,248,0.0,0.0,63,0.00,,---,0.00,VWS V14.01,2013-06-26 22:28:00,
2013-06-26 15:33:00,69.8,54.8,28.17,North,0,0.0,0.0,59,0.00,,---,0.00,VWS V14.01,2013-06-26 22:33:00,
2013-06-26 15:38:00,69.6,55.1,28.17,NNW,338,0.0,0.0,60,0.00,,---,0.00,VWS V14.01,2013-06-26 22:38:00,
2013-06-26 15:43:00,69.6,54.2,28.17,NNE,22,0.0,0.0,58,0.00,,---,0.00,VWS V14.01,2013-06-26 22:43:00,
2013-06-26 15:48:00,70.2,52.2,28.17,NE,45,0.0,0.0,53,0.00,,---,0.00,VWS V14.01,2013-06-26 22:48:00,
2013-06-26 15:53:00,70.5,52.6,28.17,NNE,22,0.0,0.0,53,0.00,,---,0.00,VWS V14.01,2013-06-26 22:53:00,
2013-06-26 15:58:00,70.7,54.7,28.17,NNW,338,0.0,0.0,57,0.00,,---,0.00,VWS V14.01,2013-06-26 22:58:00,
2013-06-26 16:03:00,70.2,53.3,28.17,WNW,292,0.0,0.0,55,0.00,,---,0.00,VWS V14.01,2013-06-26 23:03:00,
2013-06-26 16:08:00,71.6,55.1,28.17,WNW,292,0.0,0.0,56,0.00,,---,0.00,VWS V14.01,2013-06-26 23:08:00,
2013-06-26 16:13:00,72.1,51.4,28.17,WNW,292,0.0,0.0,48,0.00,,---,0.00,VWS V14.01,2013-06-26 23:13:00,
2013-06-26 16:18:00,72.7,51.3,28.17,West,270,0.0,0.0,47,0.00,,---,0.00,VWS V14.01,2013-06-26 23:18:00,
2013-06-26 16:23:00,73.8,51.1,28.17,West,270,0.0,0.0,45,0.00,,---,0.00,VWS V14.01,2013-06-26 23:23:00,
2013-06-26 16:28:00,73.2,51.2,28.17,WSW,248,0.0,0.0,46,0.00,,---,0.00,VWS V14.01,2013-06-26 23:28:00,
2013-06-26 16:33:00,72.5,51.7,28.17,West,270,0.0,0.0,48,0.00,,---,0.00,VWS V14.01,2013-06-26 23:33:00,
2013-06-26 16:38:00,72.0,52.3,28.17,West,270,0.0,0.0,50,0.00,,---,0.00,VWS V14.01,2013-06-26 23:38:00,
2013-06-26 16:43:00,71.1,52.6,28.17,West,270,0.0,0.0,52,0.00,,---,0.00,VWS V14.01,2013-06-26 23:43:00,
2013-06-26 16:48:00,70.5,53.6,28.17,North,0,0.0,0.0,55,0.00,,---,0.00,VWS V14.01,2013-06-26 23:48:00,
2013-06-26 16:53:00,71.2,54.3,28.17,West,270,0.0,0.0,55,0.00,,---,0.00,VWS V14.01,2013-06-26 23:53:00,
2013-06-26 16:58:00,71.8,54.8,28.17,West,270,0.0,0.0,55,0.00,,---,0.00,VWS V14.01,2013-06-26 23:58:00,
2013-06-26 17:03:00,70.9,51.3,28.17,West,270,2.0,2.2,50,0.00,,---,0.00,VWS V14.01,2013-06-27 00:03:00,
2013-06-26 17:08:00,69.8,51.9,28.17,West,270,0.9,0.9,53,0.00,,---,0.00,VWS V14.01,2013-06-27 00:08:00,
2013-06-26 17:13:00,69.4,53.1,28.17,West,270,0.0,0.0,56,0.00,,---,0.00,VWS V14.01,2013-06-27 00:13:00,
2013-06-26 17:18:00,69.3,53.9,28.17,West,270,0.0,0.0,58,0.00,,---,0.00,VWS V14.01,2013-06-27 00:18:00,
2013-06-26 17:23:00,69.6,54.7,28.17,West,270,0.0,0.0,59,0.00,,---,0.00,VWS V14.01,2013-06-27 00:23:00,
2013-06-26 17:28:00,70.2,54.2,28.17,West,270,0.0,0.0,57,0.00,,---,0.00,VWS V14.01,2013-06-27 00:28:00,
2013-06-26 17:33:00,70.5,54.6,28.17,West,270,0.0,0.0,57,0.00,,---,0.00,VWS V14.01,2013-06-27 00:33:00,
2013-06-26 17:38:00,70.9,55.4,28.17,West,270,0.0,0.0,58,0.00,,---,0.00,VWS V14.01,2013-06-27 00:38:00,
2013-06-26 17:43:00,71.1,56.0,28.17,West,270,0.0,0.0,59,0.00,,---,0.00,VWS V14.01,2013-06-27 00:43:00,
2013-06-26 17:48:00,71.2,56.7,28.17,NNW,338,0.0,0.0,60,0.00,,---,0.00,VWS V14.01,2013-06-27 00:48:00,
2013-06-26 17:53:00,71.4,55.4,28.17,NNW,338,0.0,0.0,57,0.00,,---,0.00,VWS V14.01,2013-06-27 00:53:00,
2013-06-26 17:58:00,70.7,54.2,28.17,WNW,292,0.0,0.0,56,0.00,,---,0.00,VWS V14.01,2013-06-27 00:58:00,
2013-06-26 18:03:00,70.2,54.7,28.17,WSW,248,0.0,0.0,58,0.00,,---,0.00,VWS V14.01,2013-06-27 01:03:00,
2013-06-26 18:08:00,69.4,54.5,28.17,WSW,248,0.0,0.0,59,0.00,,---,0.00,VWS V14.01,2013-06-27 01:08:00,
2013-06-26 18:13:00,68.7,53.8,28.17,WSW,248,0.0,0.0,59,0.00,,---,0.00,VWS V14.01,2013-06-27 01:13:00,
2013-06-26 18:18:00,68.2,53.8,28.17,WSW,248,0.0,0.0,60,0.00,,---,0.00,VWS V14.01,2013-06-27 01:18:00,
2013-06-26 18:24:00,67.5,53.6,28.17,WSW,248,0.0,0.0,61,0.00,,---,0.00,VWS V14.01,2013-06-27 01:24:00,
2013-06-26 18:29:00,66.7,53.3,28.17,WSW,248,1.3,1.3,62,0.00,,---,0.00,VWS V14.01,2013-06-27 01:29:00,
2013-06-26 18:34:00,66.4,52.5,28.17,WSW,248,0.0,0.9,61,0.00,,---,0.00,VWS V14.01,2013-06-27 01:34:00,
2013-06-26 18:39:00,66.2,52.8,28.17,WSW,248,0.0,1.1,62,0.00,,---,0.00,VWS V14.01,2013-06-27 01:39:00,
2013-06-26 18:44:00,65.7,52.7,28.17,SW,225,0.0,0.0,63,0.00,,---,0.00,VWS V14.01,2013-06-27 01:44:00,
2013-06-26 18:49:00,65.1,52.7,28.17,SW,225,0.0,0.0,64,0.00,,---,0.00,VWS V14.01,2013-06-27 01:49:00,
2013-06-26 18:54:00,64.6,52.6,28.17,SW,225,0.0,0.0,65,0.00,,---,0.00,VWS V14.01,2013-06-27 01:54:00,
2013-06-26 18:59:00,64.2,51.8,28.17,SSW,202,2.7,3.6,64,0.00,,---,0.00,VWS V14.01,2013-06-27 01:59:00,
2013-06-26 19:04:00,65.3,48.7,28.17,WNW,292,0.0,2.0,55,0.00,,---,0.00,VWS V14.01,2013-06-27 02:04:00,
2013-06-26 19:09:00,65.3,50.6,28.17,South,180,2.2,2.5,59,0.00,,---,0.00,VWS V14.01,2013-06-27 02:09:00,
2013-06-26 19:14:00,65.5,49.4,28.20,WSW,248,0.9,2.7,56,0.00,,---,0.00,VWS V14.01,2013-06-27 02:14:00,
2013-06-26 19:19:00,65.1,50.0,28.20,WNW,292,1.3,3.6,58,0.00,,---,0.00,VWS V14.01,2013-06-27 02:19:00,
2013-06-26 19:24:00,64.9,49.4,28.20,WSW,248,0.0,0.0,57,0.00,,---,0.00,VWS V14.01,2013-06-27 02:24:00,
2013-06-26 19:29:00,64.6,50.4,28.20,WSW,248,0.0,0.0,60,0.00,,---,0.00,VWS V14.01,2013-06-27 02:29:00,
2013-06-26 19:34:00,64.4,47.9,28.20,SW,225,0.0,2.7,55,0.00,,---,0.00,VWS V14.01,2013-06-27 02:34:00,
2013-06-26 19:39:00,64.6,50.0,28.20,WSW,248,0.0,0.0,59,0.00,,---,0.00,VWS V14.01,2013-06-27 02:39:00,
2013-06-26 19:44:00,64.8,48.7,28.20,WSW,248,2.2,2.2,56,0.00,,---,0.00,VWS V14.01,2013-06-27 02:44:00,
2013-06-26 19:49:00,64.6,50.4,28.20,NNW,338,0.0,1.6,60,0.00,,---,0.00,VWS V14.01,2013-06-27 02:49:00,
2013-06-26 19:54:00,64.2,49.6,28.20,SW,225,0.0,0.0,59,0.00,,---,0.00,VWS V14.01,2013-06-27 02:54:00,
2013-06-26 19:59:00,63.9,50.2,28.20,WSW,248,0.0,0.0,61,0.00,,---,0.00,VWS V14.01,2013-06-27 02:59:00,
2013-06-26 20:04:00,63.3,49.7,28.20,SW,225,0.0,0.0,61,0.00,,---,0.00,VWS V14.01,2013-06-27 03:04:00,
2013-06-26 20:09:00,62.6,49.8,28.20,WSW,248,0.0,0.0,63,0.00,,---,0.00,VWS V14.01,2013-06-27 03:09:00,
2013-06-26 20:14:00,62.2,49.9,28.20,WSW,248,0.0,0.9,64,0.00,,---,0.00,VWS V14.01,2013-06-27 03:14:00,
2013-06-26 20:19:00,61.7,49.8,28.20,SW,225,0.0,0.0,65,0.00,,---,0.00,VWS V14.01,2013-06-27 03:19:00,
2013-06-26 20:24:00,61.3,49.5,28.20,SW,225,0.0,0.0,65,0.00,,---,0.00,VWS V14.01,2013-06-27 03:24:00,
2013-06-26 20:29:00,60.8,49.4,28.20,West,270,0.0,0.0,66,0.00,,---,0.00,VWS V14.01,2013-06-27 03:29:00,
2013-06-26 20:34:00,60.1,49.5,28.20,WNW,292,0.0,0.0,68,0.00,,---,0.00,VWS V14.01,2013-06-27 03:34:00,
2013-06-26 20:39:00,59.7,49.2,28.20,WNW,292,0.0,0.0,68,0.00,,---,0.00,VWS V14.01,2013-06-27 03:39:00,
2013-06-26 20:44:00,59.2,48.6,28.23,WNW,292,0.0,0.0,68,0.00,,---,0.00,VWS V14.01,2013-06-27 03:44:00,
2013-06-26 20:49:00,58.8,48.7,28.23,West,270,0.0,0.0,69,0.00,,---,0.00,VWS V14.01,2013-06-27 03:49:00,
2013-06-26 20:54:00,58.5,48.3,28.23,West,270,0.0,0.0,69,0.00,,---,0.00,VWS V14.01,2013-06-27 03:54:00,
2013-06-26 20:59:00,58.1,48.4,28.23,West,270,0.0,0.0,70,0.00,,---,0.00,VWS V14.01,2013-06-27 03:59:00,
2013-06-26 21:01:00,57.9,48.6,28.23,West,270,0.0,0.0,71,0.00,,---,0.00,VWS V14.01,2013-06-27 04:01:00,
2013-06-26 21:03:00,57.9,48.6,28.23,West,270,0.0,0.0,71,0.00,,---,0.00,VWS V14.01,2013-06-27 04:03:00,
2013-06-26 21:08:00,57.2,48.3,28.23,WNW,292,0.0,0.0,72,0.00,,---,0.00,VWS V14.01,2013-06-27 04:08:00,
2013-06-26 21:13:00,56.8,48.3,28.23,WNW,292,0.0,0.0,73,0.00,,---,0.00,VWS V14.01,2013-06-27 04:13:00,
2013-06-26 21:18:00,56.3,47.8,28.23,WNW,292,0.0,0.0,73,0.00,,---,0.00,VWS V14.01,2013-06-27 04:18:00,
2013-06-26 21:23:00,55.9,47.8,28.23,WNW,292,0.0,0.0,74,0.00,,---,0.00,VWS V14.01,2013-06-27 04:23:00,
2013-06-26 21:28:00,55.6,47.4,28.23,WNW,292,0.0,0.0,74,0.00,,---,0.00,VWS V14.01,2013-06-27 04:28:00,
2013-06-26 21:33:00,55.2,47.5,28.23,WNW,292,0.0,0.0,75,0.00,,---,0.00,VWS V14.01,2013-06-27 04:33:00,
2013-06-26 21:38:00,55.0,47.6,28.23,WNW,292,0.0,0.0,76,0.00,,---,0.00,VWS V14.01,2013-06-27 04:38:00,
2013-06-26 21:43:00,54.9,47.8,28.26,WNW,292,0.0,0.0,77,0.00,,---,0.00,VWS V14.01,2013-06-27 04:43:00,
2013-06-26 21:48:00,54.5,47.5,28.26,WNW,292,0.0,0.0,77,0.00,,---,0.00,VWS V14.01,2013-06-27 04:48:00,
2013-06-26 21:53:00,54.3,47.3,28.26,WNW,292,0.0,0.0,77,0.00,,---,0.00,VWS V14.01,2013-06-27 04:53:00,
2013-06-26 21:58:00,54.1,47.4,28.26,WNW,292,0.0,0.0,78,0.00,,---,0.00,VWS V14.01,2013-06-27 04:58:00,
2013-06-26 22:03:00,53.8,47.4,28.26,WNW,292,0.0,0.0,79,0.00,,---,0.00,VWS V14.01,2013-06-27 05:03:00,
2013-06-26 22:08:00,53.6,47.6,28.26,North,0,0.0,0.0,80,0.00,,---,0.00,VWS V14.01,2013-06-27 05:08:00,
2013-06-26 22:13:00,53.2,47.6,28.26,North,0,0.0,0.0,81,0.00,,---,0.00,VWS V14.01,2013-06-27 05:13:00,
2013-06-26 22:18:00,53.1,47.7,28.26,North,0,0.0,0.0,82,0.00,,---,0.00,VWS V14.01,2013-06-27 05:18:00,
2013-06-26 22:23:00,53.1,47.7,28.26,North,0,0.0,0.0,82,0.00,,---,0.00,VWS V14.01,2013-06-27 05:23:00,
2013-06-26 22:28:00,53.1,47.7,28.26,North,0,0.0,0.0,82,0.00,,---,0.00,VWS V14.01,2013-06-27 05:28:00,
2013-06-26 22:33:00,52.9,47.9,28.26,NNW,338,0.0,0.0,83,0.00,,---,0.00,VWS V14.01,2013-06-27 05:33:00,
2013-06-26 22:38:00,52.9,47.5,28.26,WNW,292,0.0,0.0,82,0.00,,---,0.00,VWS V14.01,2013-06-27 05:38:00,
2013-06-26 22:43:00,52.9,47.9,28.26,NW,315,0.0,0.0,83,0.00,,---,0.00,VWS V14.01,2013-06-27 05:43:00,
2013-06-26 22:48:00,52.9,47.9,28.26,WSW,248,0.0,0.9,83,0.00,,---,0.00,VWS V14.01,2013-06-27 05:48:00,
2013-06-26 22:53:00,53.1,48.0,28.26,WNW,292,0.0,0.0,83,0.00,,---,0.00,VWS V14.01,2013-06-27 05:53:00,
2013-06-26 22:58:00,53.1,48.4,28.26,ENE,68,0.0,0.0,84,0.00,,---,0.00,VWS V14.01,2013-06-27 05:58:00,
2013-06-26 23:03:00,53.2,48.5,28.26,SSW,202,0.0,0.0,84,0.00,,---,0.00,VWS V14.01,2013-06-27 06:03:00,
2013-06-26 23:09:00,53.4,48.7,28.26,West,270,0.0,0.0,84,0.00,,---,0.00,VWS V14.01,2013-06-27 06:09:00,
2013-06-26 23:14:00,53.4,48.7,28.26,WNW,292,0.0,0.0,84,0.00,,---,0.00,VWS V14.01,2013-06-27 06:14:00,
2013-06-26 23:19:00,53.4,48.4,28.26,SSW,202,0.0,0.0,83,0.00,,---,0.00,VWS V14.01,2013-06-27 06:19:00,
2013-06-26 23:24:00,53.4,48.4,28.26,SW,225,0.0,0.0,83,0.00,,---,0.00,VWS V14.01,2013-06-27 06:24:00,
2013-06-26 23:29:00,53.4,48.4,28.26,SW,225,0.0,0.0,83,0.00,,---,0.00,VWS V14.01,2013-06-27 06:29:00,
2013-06-26 23:34:00,53.2,47.9,28.26,WSW,248,0.0,0.0,82,0.00,,---,0.00,VWS V14.01,2013-06-27 06:34:00,
2013-06-26 23:39:00,53.1,47.7,28.26,SW,225,0.0,0.0,82,0.00,,---,0.00,VWS V14.01,2013-06-27 06:39:00,
2013-06-26 23:44:00,53.1,47.7,28.26,SW,225,0.0,1.6,82,0.00,,---,0.00,VWS V14.01,2013-06-27 06:44:00,
2013-06-26 23:49:00,53.1,47.7,28.26,WSW,248,0.0,0.9,82,0.00,,---,0.00,VWS V14.01,2013-06-27 06:49:00,
2013-06-26 23:54:00,53.1,47.7,28.26,WSW,248,0.0,0.0,82,0.00,,---,0.00,VWS V14.01,2013-06-27 06:54:00,
2013-06-26 23:59:00,52.7,47.4,28.26,WSW,248,0.0,0.0,82,0.00,,---,0.00,VWS V14.01,2013-06-27 06:59:00,